Knight Air

Knight Air knights of the virtual airways


 METAR AND TAF INFORMATION
METAR FOR EGTE
ADDS - METARS form results

(1409 UTC 05 July 2020)
Data provider http://aviationweather.gov/metar/data/
 
Forecast for: EGTE (EXETER AIRPORT , GB)
Text: TAF EGTE 050759Z 0509/0518 26018G30KT 9999 SCT030
Forecast period: 0900 to 1800 UTC 05 July 2020
Forecast type: FROM: standard forecast or significant change
Winds: from the W (260 degrees) at 21 MPH (18 knots; 9.3 m/s)
gusting to 34 MPH (30 knots; 15.4 m/s)
Visibility: 6 or more miles 10+ km)
Ceiling: at least 12,000 feet AGL
Clouds: scattered clouds at 3000 feet AGL
Weather: no significant weather forecast for this period

 AIRPORT MAP

 RUNWAY INFORMATION
Runway 08 Runway length 6834 ft Runway width 151 ft
Runway elevation 99 ft Runway displaced threshold 33 ft Runway heading 76
Runway 26 Runway length 6834 ft Runway width 151 ft
Runway elevation 102 ft Runway displaced threshold 117 ft Runway heading 256
Runway 13 Runway length 4393 ft Runway width 151 ft
Runway elevation 76 ft Runway displaced threshold 446 ft Runway heading 120
Runway 31 Runway length 4393 ft Runway width 151 ft
Runway elevation 98 ft Runway displaced threshold 0 ft Runway heading 300

 AIRPORT FREQUENCIES
Type APP Name APP Frequency 128.975 MHZ
Type ATIS Name ATIS Frequency 119.325 MHZ
Type Radar Name EXETER Rad Frequency 123.57 MHZ
Type TWR Name TWR Frequency 119.8 MHZ

 AIRPORT NEAR NAVIGATION AIDS